Flag for Canada Weather past 2 weeks in Fort St. John, British Columbia, Canada

Now
37 °F

Passing clouds.


Feels Like: 30 °F
Forecast: 4 / 31 °F
Wind: 10 mph from West

Location: Fort St John

Current Time: Mar 4, 2015 at 4:07:14 PM

Latest Report: Mar 4, 2015 at 3:00 PM


Visibility: 15 mi

Pressure: 30.01 "Hg

Humidity: 45%

Dew point: 18 °F

Location of Fort St. JohnLocation

Historic Weather in Fort St. John — Graph

°F

Fort St. John temperature yesterday

Maximum temperature yesterday: 18 °F (at 4:00 PM)
Minimum temperature yesterday: 0 °F (at 3:00 AM)
Average temperature yesterday: 7 °F

Past Weeks' High & Low Weather Summary

 TemperatureHumidityPressure
High48 °F (Feb 23, 3:00 PM)93% (Feb 19, 11:00 PM)30.67 "Hg (Feb 19, 11:00 PM)
Low0 °F (Mar 3, 3:00 AM)39% (Mar 2, 9:00 PM)29.85 "Hg (Feb 19, 1:00 AM)
Average23 °F70%30.28 "Hg
* Reported Feb 17 2:00 PM — Mar 4 2:00 PM, Fort St. John, Weather by CustomWeather, © 2015

Note: Actual official high and low records may vary slightly from our data, if they occured in-between our weather recording intervals... More about our weather records

Advertising

Fort St. John weather history for previous 24 hours

 ConditionsComfort  
Time TempWeatherWind HumidityBarometerVisibility
2:00 PM
Wed, Mar 4
34 °FScattered clouds.13 mph44%30.03 "Hg15 mi
1:00 PM30 °FPassing clouds.13 mph47%30.03 "Hg15 mi
12:00 PM19 °FPartly sunny.7 mph58%30.04 "Hg15 mi
11:00 AM10 °FPartly sunny.8 mph61%30.04 "Hg15 mi
10:00 AM7 °FPassing clouds.6 mph61%30.06 "Hg15 mi
9:00 AM3 °FScattered clouds.6 mph66%30.06 "Hg15 mi
8:00 AM1 °FPassing clouds.8 mph71%30.06 "Hg15 mi
7:00 AM1 °FPassing clouds.3 mph71%30.09 "Hg15 mi
6:00 AM3 °FClear.6 mph72%30.09 "Hg15 mi
5:00 AM5 °FClear.5 mph72%30.10 "Hg15 mi
4:00 AM5 °FClear.10 mph66%30.10 "Hg15 mi
3:00 AM5 °FClear.12 mph66%30.14 "Hg15 mi
2:00 AM7 °FPassing clouds.10 mph61%30.14 "Hg15 mi
1:00 AM7 °FPassing clouds.8 mph66%30.17 "Hg15 mi
12:00 AM7 °FClear.8 mph61%30.19 "Hg15 mi
11:00 PM
Tue, Mar 3
10 °FClear.10 mph61%30.22 "Hg15 mi
10:00 PM9 °FClear.12 mph61%30.24 "Hg15 mi
9:00 PM9 °FClear.10 mph61%30.26 "Hg15 mi
8:00 PM10 °FPassing clouds.12 mph61%30.28 "Hg15 mi
7:00 PM12 °FPassing clouds.10 mph57%30.29 "Hg15 mi
6:00 PM14 °FPassing clouds.7 mph57%30.30 "Hg15 mi
5:00 PM18 °FSunny.8 mph53%30.32 "Hg15 mi
4:00 PM18 °FSunny.3 mph49%30.34 "Hg15 mi
Weather by CustomWeather, © 2015

See weather overviewHow to use our weather pages